Location: Härggis
(46.9540°N, 8.4897°E)
Time: 21:06:25
(UTC+00:00)

Cosmos 1461 - Pass Details

Date: 27 May 2022
Orbit: 516 x 638 km, 65.0° (Epoch: 02 July)

Event Time Altitude Azimuth Distance (km) Brightness Sun altitude
Rises 00:06:35 0° 314° (NW) 2,745 6.8 -21.1°
Reaches altitude 10° 00:08:59 10° 302° (WNW) 1,867 5.8 -21.0°
Enters shadow 00:11:42 26° 265° (W) 1,165 4.3 -20.9°
